Tracking 19177 objects as of 25-May-2018
HD Live streaming from Space Station
objects crossing your sky now

50 SAT


50 SAT is no longer on orbit
50 SAT is classified as:


NORAD ID: 39436
Int'l Code: 2013-066W
Perigee: N/A
Apogee: N/A
Inclination: N/A
Period: N/A
Semi major axis: N/A
RCS: N/A
Launch date: November 21, 2013
Source: (TBD)
Launch site: Orenburg, Russia (OREN)
Decay date: 2018-05-19
Uplink (MHz):
Downlink (MHz): 437.505
Beacon (MHz): 437.505
Mode: 9600bps GFSK RTTY CW
Call sign:
Status: Active

aabbcc
Your satellite tracking list
Your tracking list is empty




NASA's NSSDC Master Catalog

Two Line Element Set (TLE):
1 39436U 13066W   18138.34627707  .08053685  26553-5  29454-2 0  9995
2 39436  97.7009 274.5525 0018818 286.4398 133.6699 16.24208076248686
Source of the keplerian elements: Caltech